{"data":{"norad_id":53630,"intl_designator":"2022-104AU","name":"STARLINK-4598","alt_names":[],"object_type":"PAYLOAD","status":"ACTIVE","operator":null,"country":"US","launch_date":"2022-08-28","launch_site_code":"AFETR","launch_vehicle":null,"mission":null,"orbit_class":"UNKNOWN","rcs_meters":null,"size_class":null,"mass_kg":null,"dimensions":null,"purposes":["comms"],"wikipedia_slug":null,"has_3d_model":false,"image_url":null,"decayed_at":null,"tle_current":{"epoch":"2026-09-20T22:00:03.000096Z","epoch_age_seconds":45693,"freshness":"FRESH","line1":"1 53630U 22104AU  26263.91670139  .01358602  00000+0  21035-1 0  9997","line2":"2 53630  53.1603  55.0259 0000558  78.0624 127.3406 15.50961938  5418","mean_motion":15.50961938,"eccentricity":5.58e-5,"inclination_deg":53.1603,"raan_deg":55.0259,"arg_perigee_deg":78.0624,"mean_anomaly_deg":127.3406,"bstar":0.021035,"rev_number":541,"period_min":92.845605344572,"perigee_km":413.53724103222,"apogee_km":414.29523417354,"semimajor_km":6792.0532376029,"source":"CELESTRAK","updated_at":"2026-09-21T09:00:32.944375Z"}}}